This is the latest recevied weather packets stored in our database for station/object W1QED. If no packets are shown the sender has not sent any weather packets the latest 10 day(s).
| Time | Temp. | Humidity | Pressure | Rain* | Wind** | Luminosity | Snow |
|---|---|---|---|---|---|---|---|
| 1777871122 | 3.89° C | 55% | 1010.8 hPa | 0 mm | - | - | - |
| 1777870829 | 4.44° C | 56% | 1010.7 hPa | 0 mm | - | - | - |
| 1777870519 | 3.89° C | 51% | 1010.8 hPa | 0 mm | - | - | - |
| 1777870216 | 3.89° C | 53% | 1010.8 hPa | 0 mm | - | - | - |
| 1777869917 | 3.33° C | 55% | 1011 hPa | 0 mm | - | - | - |
| 1777869614 | 2.22° C | 58% | 1011 hPa | 0 mm | - | - | - |
| 1777869313 | 2.22° C | 58% | 1011 hPa | 0 mm | - | - | - |
| 1777869015 | 2.22° C | 58% | 1010.9 hPa | 0 mm | - | - | - |
| 1777868710 | 2.22° C | 57% | 1010.8 hPa | 0 mm | - | - | - |
| 1777868408 | 2.22° C | 58% | 1010.9 hPa | 0 mm | - | - | - |
| 1777868107 | 2.22° C | 56% | 1010.7 hPa | 0 mm | - | - | - |
| 1777867805 | 2.78° C | 54% | 1010.7 hPa | 0 mm | - | - | - |
| 1777867503 | 2.78° C | 54% | 1010.7 hPa | 0 mm | - | - | - |
| 1777867297 | 2.22° C | 56% | 1010.6 hPa | 0 mm | - | - | - |
| 1777866961 | 1.67° C | 58% | 1010.6 hPa | 0 mm | - | - | - |
| 1777866660 | 1.67° C | 57% | 1010.6 hPa | 0 mm | - | - | - |
| 1777866364 | 1.67° C | 58% | 1010.6 hPa | 0 mm | - | - | - |
| 1777866059 | 1.67° C | 59% | 1010.6 hPa | 0 mm | - | - | - |
| 1777865758 | 1.67° C | 60% | 1010.5 hPa | 0 mm | - | - | - |
| 1777865457 | 1.67° C | 60% | 1010.5 hPa | 0 mm | - | - | - |
| 1777865156 | 1.67° C | 60% | 1010.4 hPa | 0 mm | - | - | - |
| 1777864855 | 1.67° C | 59% | 1010.5 hPa | 0 mm | - | - | - |
| 1777864561 | 2.22° C | 58% | 1010.3 hPa | 0 mm | - | - | - |
| 1777864252 | 2.22° C | 57% | 1010.3 hPa | 0 mm | - | - | - |
| 1777863951 | 2.22° C | 57% | 1010.4 hPa | 0 mm | - | - | - |
* Rain latest hour (hover to see other rain measurements)
** Current wind speed in m/s (hover to see current wind gust speed)